{"data":{"norad_id":63411,"intl_designator":"2025-065N","name":"STARLINK-33647","alt_names":[],"object_type":"PAYLOAD","status":"ACTIVE","operator":null,"country":"US","launch_date":"2025-03-31","launch_site_code":"AFETR","launch_vehicle":null,"mission":null,"orbit_class":"UNKNOWN","rcs_meters":null,"size_class":null,"mass_kg":null,"dimensions":null,"purposes":["comms"],"wikipedia_slug":null,"has_3d_model":false,"image_url":null,"decayed_at":null,"tle_current":{"epoch":"2026-09-20T22:27:01.869120Z","epoch_age_seconds":121277,"freshness":"FRESH","line1":"1 63411U 25065N   26263.93543830  .00016061  00000+0  59135-3 0  9996","line2":"2 63411  43.0023  91.9203 0003351 259.4993 100.5481 15.27607801 82619","mean_motion":15.27607801,"eccentricity":0.0003351,"inclination_deg":43.0023,"raan_deg":91.9203,"arg_perigee_deg":259.4993,"mean_anomaly_deg":100.5481,"bstar":0.00059135,"rev_number":8261,"period_min":94.265033149042,"perigee_km":480.66669554139,"apogee_km":485.2650066722,"semimajor_km":6861.1028511068,"source":"CELESTRAK","updated_at":"2026-09-21T09:00:34.980163Z"}}}